Change the Weather History Date:

Sunday, April 7, 2013

  Actual Average Record
Temperature  
Mean Temperature 44 °F -  
Max Temperature 48 °F 55 °F 70 °F (2014)
Min Temperature 38 °F 35 °F 27 °F (2012)
Degree Days  
Heating Degree Days 22    
Moisture  
Dew Point 41 °F    
Average Humidity 95    
Maximum Humidity 100    
Minimum Humidity 75    
Precipitation  
Precipitation 0.92 in - - ()
Sea Level Pressure  
Sea Level Pressure 29.67 in    
Wind  
Wind Speed 9 mph (SSW)    
Max Wind Speed 17 mph    
Max Gust Speed 22 mph    
Visibility 9 miles    
Events Rain    
Averages and records for this station are not official NWS values.
T = Trace of Precipitation, MM = Missing Value Source: NWS Daily Summary

Daily Weather History Graph

Daily Weather History Graph

Search for Another Location

Airport or City:

Trip Planner

Search our weather history database for the weather conditions in past years. The results will help you decide how hot, cold, wet, or windy it might be!

Date:

Astronomy

Apr. 07, 2013 Rise Set
Actual Time 6:36 AM PDT 7:48 PM PDT
Civil Twilight 6:05 AM PDT 8:19 PM PDT
Nautical Twilight 5:28 AM PDT 8:57 PM PDT
Astronomical Twilight 4:48 AM PDT 9:38 PM PDT
Moon 5:07 AM PDT (4/7) 5:18 PM PDT (4/7)
Length of Visible Light 14h 14m
Length of Day
13h 11m
Waning Crescent, 7% of the Moon is Illuminated
Apr 7
Waning Crescent
Apr 10
New
Apr 18
First Quarter
Apr 25
Full
May 2
Last Quarter

Hourly Weather History & Observations

Time (PDT) Temp. Windchill Dew Point Humidity Pressure Visibility Wind Dir Wind Speed Gust Speed Precip Events Conditions
12:03 AM 42.8 °F 40.1 °F 42.8 °F 100% 29.75 in 9.0 mi NE 4.6 mph - N/A   Drizzle
12:48 AM 42.8 °F 38.6 °F 42.8 °F 100% 29.70 in 9.0 mi NE 6.9 mph - N/A Rain Light Rain
12:58 AM 43.3 °F 39.9 °F 42.8 °F 98% 29.71 in 8.0 mi NE 5.8 mph - 0.07 in Rain Light Rain
1:53 AM 42.8 °F 39.3 °F 42.8 °F 100% 29.63 in 6.0 mi NNE 5.8 mph - N/A Rain Light Rain
1:58 AM 43.0 °F 38.2 °F 42.4 °F 98% 29.64 in 6.0 mi North 8.1 mph - 0.12 in Rain Light Rain
2:18 AM 42.8 °F 38.6 °F 42.8 °F 100% 29.59 in 10.0 mi North 6.9 mph - N/A Rain Light Rain
2:23 AM 42.8 °F 38.0 °F 42.8 °F 100% 29.59 in 9.0 mi North 8.1 mph - N/A Rain Rain
2:33 AM 42.8 °F 37.5 °F 42.8 °F 100% 29.57 in 10.0 mi North 9.2 mph - N/A Rain Light Rain
2:48 AM 42.8 °F 38.0 °F 42.8 °F 100% 29.56 in 9.0 mi North 8.1 mph - N/A Rain Rain
2:58 AM 42.8 °F 37.0 °F 42.3 °F 98% 29.57 in 7.0 mi North 10.4 mph - 0.08 in Rain Light Rain
3:17 AM 42.8 °F 40.1 °F 42.8 °F 100% 29.54 in 6.0 mi North 4.6 mph - N/A Rain Light Rain
3:58 AM 42.8 °F 38.0 °F 42.6 °F 99% 29.53 in 8.0 mi NW 8.1 mph - 0.09 in Rain Light Rain
4:08 AM 42.8 °F 37.5 °F 42.8 °F 100% 29.51 in 6.0 mi NW 9.2 mph - N/A Rain Light Rain
4:33 AM 42.8 °F - 42.8 °F 100% 29.50 in 5.0 mi WSW 2.3 mph - N/A Rain Light Rain
4:58 AM 42.6 °F 37.2 °F 42.4 °F 99% 29.52 in 5.0 mi NW 9.2 mph - 0.17 in Rain Rain
5:03 AM 42.8 °F 38.6 °F 42.8 °F 100% 29.49 in 6.0 mi NNW 6.9 mph - N/A Rain Rain
5:08 AM 42.8 °F 39.3 °F 42.8 °F 100% 29.50 in 6.0 mi NW 5.8 mph - N/A Rain Rain
5:18 AM 42.8 °F 37.5 °F 42.8 °F 100% 29.50 in 4.0 mi WNW 9.2 mph - N/A Rain Light Rain
5:23 AM 42.8 °F 37.0 °F 42.8 °F 100% 29.50 in 4.0 mi WNW 10.4 mph - N/A Rain Rain
5:28 AM 42.8 °F 37.0 °F 42.8 °F 100% 29.50 in 4.0 mi WNW 10.4 mph - N/A Rain Rain
5:33 AM 42.8 °F 37.0 °F 42.8 °F 100% 29.49 in 6.0 mi NW 10.4 mph - N/A Rain Light Rain
5:43 AM 42.8 °F 37.0 °F 42.8 °F 100% 29.49 in 8.0 mi NW 10.4 mph - N/A Rain Light Rain
5:48 AM 42.8 °F 38.0 °F 42.8 °F 100% 29.49 in 8.0 mi WNW 8.1 mph - N/A Rain Light Rain
5:53 AM 42.8 °F 36.6 °F 42.8 °F 100% 29.49 in 9.0 mi WNW 11.5 mph - N/A Rain Light Rain
5:58 AM 42.3 °F 35.5 °F 42.1 °F 99% 29.52 in 10.0 mi WNW 12.7 mph - 0.18 in Rain Light Rain
6:08 AM 41.0 °F 33.1 °F 41.0 °F 100% 29.50 in 8.0 mi WNW 15.0 mph - N/A Rain Light Rain
6:28 AM 41.0 °F 33.5 °F 41.0 °F 100% 29.51 in 6.0 mi NW 13.8 mph - N/A   Overcast
6:33 AM 41.0 °F 33.1 °F 41.0 °F 100% 29.52 in 7.0 mi NW 15.0 mph - N/A   Overcast
6:58 AM 39.9 °F 32.5 °F 39.6 °F 99% 29.56 in 7.0 mi NW 12.7 mph - 0.05 in Rain Light Rain
7:08 AM 39.2 °F 31.6 °F 39.2 °F 100% 29.55 in 7.0 mi NW 12.7 mph - N/A Rain Light Rain
7:18 AM 39.2 °F 32.5 °F 39.2 °F 100% 29.57 in 9.0 mi WNW 10.4 mph - N/A Rain Light Rain
7:19 AM 39.2 °F 33.0 °F 39.2 °F 100% 29.57 in 9.0 mi West 9.2 mph - N/A Rain Light Rain
7:34 AM 39.2 °F 35.0 °F 39.2 °F 100% 29.59 in 8.0 mi West 5.8 mph - N/A Rain Light Rain
7:39 AM 39.2 °F 33.6 °F 39.2 °F 100% 29.60 in 9.0 mi West 8.1 mph - N/A Rain Light Rain
7:58 AM 39.6 °F 34.7 °F 39.0 °F 98% 29.64 in 8.0 mi SW 6.9 mph - 0.04 in Rain Light Rain
8:13 AM 39.2 °F 33.6 °F 39.2 °F 100% 29.64 in 10.0 mi SW 8.1 mph - N/A   Overcast
8:15 AM 39.2 °F 33.6 °F 39.2 °F 100% 29.64 in 10.0 mi SSW 8.1 mph - N/A   Light Drizzle
8:20 AM 39.2 °F 33.6 °F 39.2 °F 100% 29.64 in 7.0 mi SSW 8.1 mph - N/A   Light Drizzle
8:25 AM 39.2 °F 32.0 °F 39.2 °F 100% 29.65 in 5.0 mi SSW 11.5 mph - N/A   Light Drizzle
8:40 AM 39.2 °F 33.0 °F 39.2 °F 100% 29.66 in 5.0 mi South 9.2 mph - N/A   Overcast
8:46 AM 39.2 °F 33.6 °F 39.2 °F 100% 29.66 in 6.0 mi SSW 8.1 mph - N/A   Light Drizzle
8:48 AM 39.2 °F 33.6 °F 39.2 °F 100% 29.66 in 6.0 mi South 8.1 mph - N/A   Light Drizzle
8:58 AM 40.3 °F 35.5 °F 39.9 °F 99% 29.69 in 8.0 mi South 6.9 mph - 0.02 in Rain Light Rain
9:08 AM 41.0 °F 35.8 °F 39.2 °F 93% 29.67 in 9.0 mi SSE 8.1 mph - N/A Rain Light Rain
9:11 AM 41.0 °F 35.8 °F 39.2 °F 93% 29.67 in 8.0 mi SSE 8.1 mph - N/A Rain Light Rain
9:35 AM 41.0 °F 33.9 °F 39.2 °F 93% 29.68 in 10.0 mi SSE 12.7 mph - N/A   Overcast
9:38 AM 41.0 °F 33.9 °F 39.2 °F 93% 29.68 in 10.0 mi SSE 12.7 mph - N/A   Light Drizzle
9:43 AM 41.0 °F 33.9 °F 41.0 °F 100% 29.68 in 10.0 mi SSE 12.7 mph - N/A   Light Drizzle
9:58 AM 40.3 °F 32.2 °F 40.1 °F 99% 29.70 in 7.0 mi SE 15.0 mph - 0.03 in Rain Light Rain
10:08 AM 41.0 °F 33.5 °F 39.2 °F 93% 29.68 in 10.0 mi SE 13.8 mph - N/A Rain Light Rain
10:10 AM 41.0 °F 34.3 °F 39.2 °F 93% 29.69 in 10.0 mi SE 11.5 mph - N/A   Overcast
10:15 AM 41.0 °F 34.3 °F 41.0 °F 100% 29.69 in 10.0 mi SE 11.5 mph - N/A   Overcast
10:21 AM 41.0 °F 34.7 °F 41.0 °F 100% 29.69 in 10.0 mi SE 10.4 mph - N/A   Light Drizzle
10:31 AM 41.0 °F 34.3 °F 41.0 °F 100% 29.69 in 10.0 mi SE 11.5 mph - N/A   Light Drizzle
10:35 AM 41.0 °F 34.7 °F 41.0 °F 100% 29.69 in 10.0 mi SE 10.4 mph - N/A   Overcast
10:40 AM 41.0 °F 34.7 °F 41.0 °F 100% 29.69 in 10.0 mi SE 10.4 mph - N/A   Light Drizzle
10:45 AM 41.0 °F 34.3 °F 41.0 °F 100% 29.69 in 10.0 mi SE 11.5 mph - N/A   Light Drizzle
10:54 AM 41.0 °F 35.2 °F 41.0 °F 100% 29.69 in 10.0 mi SSE 9.2 mph - N/A   Overcast
10:58 AM 41.9 °F 36.3 °F 41.5 °F 99% 29.71 in 10.0 mi SSE 9.2 mph - 0.02 in   Overcast
11:06 AM 42.8 °F 37.0 °F 42.8 °F 100% 29.69 in 10.0 mi South 10.4 mph - N/A   Light Drizzle
11:16 AM 42.8 °F 35.8 °F 42.8 °F 100% 29.70 in 10.0 mi South 13.8 mph 19.6 mph N/A   Light Drizzle
11:20 AM 44.6 °F 38.1 °F 42.8 °F 93% 29.70 in 10.0 mi South 13.8 mph - N/A   Overcast
11:27 AM 44.6 °F 38.4 °F 42.8 °F 93% 29.70 in 10.0 mi South 12.7 mph - N/A   Light Drizzle
11:47 AM 44.6 °F 37.8 °F 42.8 °F 93% 29.71 in 10.0 mi South 15.0 mph - N/A   Light Drizzle
11:52 AM 44.6 °F 37.8 °F 42.8 °F 93% 29.71 in 10.0 mi South 15.0 mph - N/A   Overcast
11:58 AM 44.8 °F 37.4 °F 43.3 °F 95% 29.73 in 10.0 mi South 17.3 mph 21.9 mph 0.01 in   Overcast
12:03 PM 44.6 °F 38.1 °F 42.8 °F 93% 29.71 in 10.0 mi South 13.8 mph 21.9 mph N/A   Overcast
12:14 PM 44.6 °F 37.4 °F 42.8 °F 93% 29.72 in 10.0 mi South 16.1 mph 20.7 mph N/A   Light Drizzle
12:20 PM 44.6 °F 38.8 °F 42.8 °F 93% 29.72 in 10.0 mi SSW 11.5 mph 20.7 mph N/A   Overcast
12:58 PM 45.3 °F 38.7 °F 43.3 °F 93% 29.76 in 10.0 mi SSW 15.0 mph 18.4 mph 0.00 in   Overcast
1:08 PM 44.6 °F 38.4 °F 42.8 °F 93% 29.74 in 10.0 mi South 12.7 mph - N/A   Overcast
1:33 PM 46.4 °F 41.1 °F 42.8 °F 87% 29.74 in 10.0 mi South 11.5 mph - N/A   Mostly Cloudy
1:43 PM 46.4 °F 41.9 °F 44.6 °F 93% 29.75 in 10.0 mi South 9.2 mph - N/A   Scattered Clouds
1:58 PM 45.5 °F 40.3 °F 43.3 °F 92% 29.77 in 10.0 mi SSW 10.4 mph - 0.01 in   Mostly Cloudy
2:05 PM 44.6 °F 40.7 °F 42.8 °F 93% 29.75 in 10.0 mi SSW 6.9 mph - N/A   Light Drizzle
2:58 PM 45.5 °F 41.8 °F 43.0 °F 91% 29.78 in 10.0 mi SSW 6.9 mph - 0.02 in   Light Drizzle
3:14 PM 46.4 °F 41.9 °F 42.8 °F 87% 29.76 in 10.0 mi SSW 9.2 mph - N/A   Mostly Cloudy
3:29 PM 46.4 °F 42.9 °F 42.8 °F 87% 29.76 in 10.0 mi South 6.9 mph - N/A   Mostly Cloudy
3:34 PM 46.4 °F 42.4 °F 42.8 °F 87% 29.77 in 10.0 mi South 8.1 mph - N/A   Mostly Cloudy
3:49 PM 46.4 °F 43.5 °F 44.6 °F 93% 29.77 in 10.0 mi SSW 5.8 mph - N/A   Mostly Cloudy
3:58 PM 47.1 °F - 43.9 °F 88% 29.79 in 10.0 mi SSW 6.9 mph - 0.01 in   Mostly Cloudy
4:58 PM 47.8 °F - 41.2 °F 78% 29.80 in 10.0 mi SW 10.4 mph - N/A   Mostly Cloudy
5:58 PM 48.6 °F - 40.8 °F 75% 29.81 in 10.0 mi SSW 8.1 mph - N/A   Mostly Cloudy
6:13 PM 48.2 °F - 41.0 °F 76% 29.79 in 10.0 mi SSW 8.1 mph - N/A   Scattered Clouds
6:18 PM 48.2 °F - 41.0 °F 76% 29.79 in 10.0 mi SSW 6.9 mph - N/A   Mostly Cloudy
6:58 PM 47.3 °F - 40.1 °F 76% 29.82 in 10.0 mi SW 6.9 mph - N/A   Overcast
7:58 PM 45.9 °F 42.3 °F 40.6 °F 82% 29.84 in 10.0 mi SW 6.9 mph - N/A   Overcast
8:58 PM 44.8 °F 41.0 °F 39.7 °F 82% 29.86 in 10.0 mi SSW 6.9 mph - N/A   Mostly Cloudy
9:43 PM 44.6 °F 40.2 °F 39.2 °F 81% 29.85 in 10.0 mi SSW 8.1 mph - N/A   Mostly Cloudy
9:58 PM 44.1 °F 40.1 °F 39.2 °F 83% 29.88 in 10.0 mi South 6.9 mph - N/A   Mostly Cloudy
10:58 PM 42.3 °F 37.9 °F 39.4 °F 90% 29.90 in 10.0 mi SSW 6.9 mph - N/A   Clear
11:58 PM 38.3 °F 33.2 °F 37.2 °F 96% 29.92 in 10.0 mi SE 6.9 mph - N/A   Mostly Cloudy